{"data":{"norad_id":68110,"intl_designator":"2026-044K","name":"STARLINK-36830","alt_names":[],"object_type":"PAYLOAD","status":"ACTIVE","operator":null,"country":"US","launch_date":"2026-03-08","launch_site_code":"AFWTR","launch_vehicle":null,"mission":null,"orbit_class":"UNKNOWN","rcs_meters":null,"size_class":null,"mass_kg":null,"dimensions":null,"purposes":["comms"],"wikipedia_slug":null,"has_3d_model":false,"image_url":null,"decayed_at":null,"tle_current":{"epoch":"2026-05-24T20:25:48.114048Z","epoch_age_seconds":81791,"freshness":"FRESH","line1":"1 68110U 26044K   26144.85125132  .00009326  00000+0  29109-3 0  9999","line2":"2 68110  97.2836 105.4617 0001404  26.9515 333.1800 15.33417590 13251","mean_motion":15.3341759,"eccentricity":0.0001404,"inclination_deg":97.2836,"raan_deg":105.4617,"arg_perigee_deg":26.9515,"mean_anomaly_deg":333.18,"bstar":0.00029109,"rev_number":1325,"period_min":93.907883240077,"perigee_km":464.66386442167,"apogee_km":466.58559271505,"semimajor_km":6843.7617285684,"source":"CELESTRAK","updated_at":"2026-05-25T13:38:21.842629Z"}}}